Voltar ao catálogo

FENGYUN 1C DEB

AtivoSSO
NORAD 30352·DEBRIS·🇨🇳 China

Lançado May 10, 1999 de Taiyuan Satellite Launch Center

Loading…

Próximas Passagens (próximas 24 horas)

TLE

AtualizadoSource: Space-Track

Época: Sep 13, 2026, 23:32 UTC

1 30352U 99025ABP 26256.98060101  .00000295  00000-0  19871-3 0  9999
2 30352  98.7481 274.6526 0027314 261.4860 126.7271 14.07754685  7750

Acompanhe FENGYUN 1C DEB em tempo real com AllMySat

Download on the App Store